Погода в Агаповке

Россия / Челябинская область     53°18′10″N   59°08′26″E
темп.,
°C
ветер,
м/с
пор.,
м/с
влажн.,
%
обл.,
%
осадки,
мм/ч
давл.,
гПа
погр.,
м
12 августа, пт
пт1223:00+17ссв348672 1.1 101970
02:00+16с3688100 0.1 1019125
05:00+15ссв3488100 0.1 102093
08:00+16св467739 0.0 1021345
11:00+20ссв454944 0.0 10211078
14:00+22ссв334041 0.0 10201536
17:00+23сз13365 0.0 10191733
20:00+20юз22495 0.0 101912
13 августа, сб
сб1323:00+16с37620 0.0 1020114
02:00+14сз2271100 0.0 102112
05:00+13зсз227479 0.0 102026
08:00+17з35644 0.0 1020183
11:00+22зсз45495 0.0 10181106
14:00+25сз56405 0.0 10171785
17:00+25ссз67405 0.0 10161860
20:00+21сз46585 0.0 1017108
14 августа, вс
вс1423:00+17ссз347240 0.0 101857
02:00+15с227925 0.0 101820
05:00+13св33875 0.0 101936
08:00+16св456926 0.0 1020302
11:00+19всв334924 0.0 1020889
14:00+22св32458 0.0 10191561
17:00+23всв2243100 0.0 10191659
20:00+19в3457100 0.0 101961
15 августа, пн
пн1523:00+16вюв3551100 0.0 102090
02:00+14с115292 0.0 102011
05:00+13св11585 0.0 102110
08:00+15с115332 0.0 1022139
11:00+20ссв104138 0.0 1022895
14:00+23с11380 0.0 10211744
17:00+23ссв22382 0.0 10202006
20:00+19в35560 0.0 102069
16 августа, вт
вт1623:00+16вюв225343 0.0 102119
02:00+13всв11630 0.0 102211
05:00+12ссв22700 0.0 102312
08:00+14ссв226277 0.0 1023198
11:00+19св225016 0.0 1023684
14:00+22с23420 0.0 10221561
17:00+24ссв34370 0.0 10211881
20:00+19в33526 0.0 102125